| time (UTC) | temp F | wind direction | speed MPH | gust MPH | rain 1hr in | rain 24hr in | rain mn in | humidity % | barometer mb |
| 20260506073222 | 39 | 82 | 1.0 | 2.0 | 0.00 | 0.00 | 0.00 | 72 | 1010.4 |
| 20260506072719 | 39 | 56 | 2.0 | 2.0 | 0.00 | 0.00 | 0.00 | 70 | 1010.2 |
| 20260506072217 | 39 | 78 | 1.0 | 2.0 | 0.00 | 0.00 | 0.00 | 69 | 1010.2 |
| 20260506071714 | 40 | 58 | 2.0 | 2.0 | 0.00 | 0.00 | 0.00 | 69 | 1010.2 |
| 20260506071212 | 40 | 70 | 2.0 | 2.0 | 0.00 | 0.00 | 0.00 | 67 | 1010.0 |
| 20260506070709 | 41 | 86 | 2.0 | 2.0 | 0.00 | 0.00 | 0.00 | 67 | 1010.2 |
| 20260506070206 | 41 | 86 | 1.0 | 2.0 | 0.00 | 0.00 | 0.00 | 66 | 1010.1 |
| 20260506062143 | 44 | 71 | 2.0 | 2.0 | 0.00 | 0.00 | 0.00 | 60 | 1010.3 |
| 20260506061639 | 44 | 78 | 1.0 | 2.0 | 0.00 | 0.00 | 0.00 | 59 | 1010.1 |
| 20260506061136 | 45 | 45 | 1.0 | 3.0 | 0.00 | 0.00 | 0.00 | 54 | 1010.4 |
| 20260506060634 | 45 | 42 | 2.0 | 3.0 | 0.00 | 0.00 | 0.00 | 55 | 1010.1 |
| 20260506060131 | 45 | 51 | 2.0 | 3.0 | 0.00 | 0.00 | 0.00 | 55 | 1010.1 |
| 20260506051103 | 46 | 48 | 2.0 | 4.0 | 0.00 | 0.00 | 0.00 | 54 | 1010.0 |
| 20260506050601 | 46 | 31 | 2.0 | 3.0 | 0.00 | 0.00 | 0.00 | 53 | 1009.9 |
| 20260506045051 | 46 | 49 | 3.0 | 3.0 | 0.00 | 0.00 | 0.00 | 55 | 1009.6 |
| 20260506044549 | 46 | 40 | 3.0 | 3.0 | 0.00 | 0.00 | 0.00 | 59 | 1009.5 |
| 20260506044046 | 46 | 60 | 2.0 | 2.0 | 0.00 | 0.00 | 0.00 | 60 | 1009.8 |
| 20260506043543 | 46 | 73 | 2.0 | 2.0 | 0.00 | 0.00 | 0.00 | 59 | 1009.8 |
| 20260506043042 | 46 | 62 | 2.0 | 3.0 | 0.00 | 0.00 | 0.00 | 54 | 1009.8 |
| 20260506042540 | 47 | 82 | 1.0 | 2.0 | 0.00 | 0.00 | 0.00 | 56 | 1009.8 |
| 20260506042038 | 47 | 63 | 2.0 | 2.0 | 0.00 | 0.00 | 0.00 | 56 | 1009.9 |
| 20260506041536 | 48 | 79 | 1.0 | 2.0 | 0.00 | 0.00 | 0.00 | 52 | 1009.8 |
| 20260506041032 | 48 | 79 | 1.0 | 2.0 | 0.00 | 0.00 | 0.00 | 51 | 1009.6 |
| 20260506040531 | 49 | 64 | 2.0 | 2.0 | 0.00 | 0.00 | 0.00 | 47 | 1009.7 |
| 20260506040026 | 49 | 40 | 2.0 | 2.0 | 0.00 | 0.00 | 0.00 | 46 | 1009.5 |
| 20260506035523 | 49 | 71 | 1.0 | 2.0 | 0.00 | 0.00 | 0.00 | 46 | 1009.7 |
| 20260506035020 | 49 | 49 | 1.0 | 2.0 | 0.00 | 0.00 | 0.00 | 45 | 1009.6 |
| 20260506034518 | 50 | 56 | 2.0 | 2.0 | 0.00 | 0.00 | 0.00 | 46 | 1009.9 |
| 20260506034014 | 50 | 52 | 0.0 | 2.0 | 0.00 | 0.00 | 0.00 | 45 | 1009.5 |
| 20260506033512 | 50 | 19 | 1.0 | 2.0 | 0.00 | 0.00 | 0.00 | 44 | 1009.4 |
| 20260506033009 | 50 | 27 | 3.0 | 4.0 | 0.00 | 0.00 | 0.00 | 43 | 1009.1 |
| 20260506032506 | 50 | 30 | 2.0 | 5.0 | 0.00 | 0.00 | 0.00 | 46 | 1009.1 |
| 20260506032002 | 50 | 23 | 2.0 | 6.0 | 0.00 | 0.00 | 0.00 | 46 | 1009.0 |
| 20260506031500 | 50 | 21 | 3.0 | 9.0 | 0.00 | 0.00 | 0.00 | 46 | 1009.2 |
| 20260506030957 | 50 | 28 | 3.0 | 6.0 | 0.00 | 0.00 | 0.00 | 47 | 1009.0 |
| 20260506030455 | 50 | 44 | 3.0 | 3.0 | 0.00 | 0.00 | 0.00 | 47 | 1009.0 |
| 20260506025951 | 50 | 27 | 2.0 | 4.0 | 0.00 | 0.00 | 0.00 | 47 | 1008.9 |
| 20260506025448 | 49 | 19 | 2.0 | 5.0 | 0.00 | 0.00 | 0.00 | 49 | 1009.1 |
| 20260506024945 | 48 | 8 | 2.0 | 3.0 | 0.00 | 0.00 | 0.00 | 52 | 1009.2 |
| 20260506024442 | 47 | 61 | 2.0 | 2.0 | 0.00 | 0.00 | 0.00 | 64 | 1009.3 |
| 20260506023937 | 47 | 62 | 2.0 | 2.0 | 0.00 | 0.00 | 0.00 | 61 | 1009.0 |
| 20260506023435 | 48 | 52 | 2.0 | 3.0 | 0.00 | 0.00 | 0.00 | 59 | 1009.0 |
| 20260506022931 | 48 | 47 | 3.0 | 3.0 | 0.00 | 0.00 | 0.00 | 58 | 1008.7 |
| 20260506022429 | 48 | 65 | 2.0 | 2.0 | 0.00 | 0.00 | 0.00 | 57 | 1008.7 |
| 20260506021927 | 48 | 73 | 2.0 | 2.0 | 0.00 | 0.00 | 0.00 | 58 | 1008.7 |
| 20260506021424 | 49 | 72 | 2.0 | 2.0 | 0.00 | 0.00 | 0.00 | 57 | 1008.6 |
| 20260506020921 | 49 | 67 | 2.0 | 3.0 | 0.00 | 0.00 | 0.00 | 54 | 1008.5 |
| 20260506020419 | 49 | 73 | 2.0 | 2.0 | 0.00 | 0.00 | 0.00 | 52 | 1008.5 |
| 20260506015916 | 49 | 69 | 2.0 | 2.0 | 0.00 | 0.00 | 0.00 | 50 | 1008.4 |
| 20260506015413 | 50 | 83 | 1.0 | 2.0 | 0.00 | 0.00 | 0.00 | 47 | 1008.4 |
| 20260506014910 | 50 | 74 | 2.0 | 2.0 | 0.00 | 0.00 | 0.00 | 46 | 1008.2 |
| 20260506014407 | 50 | 92 | 1.0 | 2.0 | 0.00 | 0.00 | 0.00 | 46 | 1008.1 |
| 20260506013903 | 50 | 75 | 2.0 | 2.0 | 0.00 | 0.00 | 0.00 | 44 | 1008.1 |
| 20260506013402 | 50 | 82 | 2.0 | 2.0 | 0.00 | 0.00 | 0.00 | 47 | 1008.1 |
| 20260506012857 | 50 | 86 | 1.0 | 2.0 | 0.00 | 0.00 | 0.00 | 49 | 1007.9 |
| 20260506012354 | 51 | 66 | 2.0 | 2.0 | 0.00 | 0.00 | 0.00 | 47 | 1007.4 |
| 20260506011851 | 51 | 81 | 2.0 | 2.0 | 0.00 | 0.00 | 0.00 | 45 | 1007.9 |
| 20260506011348 | 51 | 55 | 2.0 | 2.0 | 0.00 | 0.00 | 0.00 | 44 | 1007.6 |
| 20260506010845 | 52 | 80 | 1.0 | 1.0 | 0.00 | 0.00 | 0.00 | 42 | 1007.8 |
| 20260506010344 | 52 | 60 | 1.0 | 2.0 | 0.00 | 0.00 | 0.00 | 41 | 1007.4 |
| 20260506005840 | 53 | 26 | 1.0 | 2.0 | 0.00 | 0.00 | 0.00 | 40 | 1007.5 |
| 20260506005337 | 53 | 25 | 2.0 | 3.0 | 0.00 | 0.00 | 0.00 | 39 | 1007.4 |
| 20260506004833 | 53 | 19 | 1.0 | 2.0 | 0.00 | 0.00 | 0.00 | 39 | 1007.5 |
| 20260506004331 | 53 | 341 | 1.0 | 4.0 | 0.00 | 0.00 | 0.00 | 39 | 1007.3 |
| 20260506003826 | 53 | 6 | 2.0 | 2.0 | 0.00 | 0.00 | 0.00 | 37 | 1007.2 |
| 20260506003323 | 53 | 317 | 2.0 | 2.0 | 0.00 | 0.00 | 0.00 | 39 | 1007.4 |
| 20260506002819 | 54 | 0 | 0.0 | 4.0 | 0.00 | 0.00 | 0.00 | 39 | 1007.2 |
| 20260506002316 | 54 | 40 | 5.0 | 7.0 | 0.00 | 0.00 | 0.00 | 38 | 1007.3 |
| 20260506001811 | 54 | 31 | 4.0 | 7.0 | 0.00 | 0.00 | 0.00 | 38 | 1007.3 |
| 20260506001309 | 54 | 359 | 4.0 | 7.0 | 0.00 | 0.00 | 0.00 | 37 | 1007.4 |
| 20260506000806 | 55 | 294 | 1.0 | 5.0 | 0.00 | 0.00 | 0.00 | 37 | 1007.4 |
| 20260506000304 | 55 | 8 | 2.0 | 6.0 | 0.00 | 0.00 | 0.00 | 36 | 1007.2 |
| 20260505235800 | 55 | 288 | 2.0 | 3.0 | 0.00 | 0.00 | 0.00 | 38 | 1007.2 |
| 20260505235258 | 55 | 5 | 2.0 | 5.0 | 0.00 | 0.00 | 0.00 | 37 | 1007.3 |
| 20260505234754 | 55 | 18 | 2.0 | 2.0 | 0.00 | 0.00 | 0.00 | 39 | 1007.2 |
| 20260505234252 | 55 | 31 | 1.0 | 4.0 | 0.00 | 0.00 | 0.00 | 36 | 1007.2 |
| 20260505233748 | 55 | 286 | 2.0 | 3.0 | 0.00 | 0.00 | 0.00 | 35 | 1007.3 |
| 20260505233247 | 55 | 311 | 2.0 | 4.0 | 0.00 | 0.00 | 0.00 | 37 | 1007.3 |
| 20260505232744 | 55 | 41 | 2.0 | 2.0 | 0.00 | 0.00 | 0.00 | 38 | 1007.2 |
| 20260505232241 | 55 | 318 | 2.0 | 5.0 | 0.00 | 0.00 | 0.00 | 35 | 1007.3 |
| 20260505231737 | 55 | 299 | 2.0 | 2.0 | 0.00 | 0.00 | 0.00 | 36 | 1007.4 |
| 20260505231237 | 55 | 277 | 2.0 | 2.0 | 0.00 | 0.00 | 0.00 | 35 | 1007.4 |
| 20260505230734 | 55 | 300 | 0.0 | 2.0 | 0.00 | 0.00 | 0.00 | 35 | 1007.2 |
| 20260505230231 | 55 | 12 | 2.0 | 3.0 | 0.00 | 0.00 | 0.00 | 36 | 1007.4 |
| 20260505225728 | 55 | 25 | 4.0 | 5.0 | 0.00 | 0.00 | 0.00 | 36 | 1007.5 |
| 20260505225225 | 55 | 297 | 0.0 | 5.0 | 0.00 | 0.00 | 0.00 | 34 | 1007.6 |
| 20260505224720 | 55 | 310 | 0.0 | 3.0 | 0.00 | 0.00 | 0.00 | 33 | 1007.5 |
| 20260505224218 | 55 | 329 | 2.0 | 3.0 | 0.00 | 0.00 | 0.00 | 33 | 1007.5 |
| 20260505223715 | 55 | 23 | 1.0 | 3.0 | 0.00 | 0.00 | 0.00 | 34 | 1007.6 |
| 20260505223211 | 55 | 15 | 1.0 | 2.0 | 0.00 | 0.00 | 0.00 | 36 | 1007.5 |
| 20260505222707 | 55 | 293 | 2.0 | 4.0 | 0.00 | 0.00 | 0.00 | 34 | 1007.6 |
| 20260505222203 | 55 | 300 | 2.0 | 2.0 | 0.00 | 0.00 | 0.00 | 35 | 1007.4 |
| 20260505221701 | 55 | 179 | 2.0 | 5.0 | 0.00 | 0.00 | 0.00 | 33 | 1007.5 |
| 20260505221157 | 55 | 51 | 0.0 | 4.0 | 0.00 | 0.00 | 0.00 | 36 | 1007.4 |
| 20260505220654 | 55 | 310 | 0.0 | 2.0 | 0.00 | 0.00 | 0.00 | 35 | 1007.5 |
| 20260505220152 | 55 | 333 | 1.0 | 4.0 | 0.00 | 0.00 | 0.00 | 33 | 1007.7 |
| 20260505215649 | 55 | 4 | 1.0 | 4.0 | 0.00 | 0.00 | 0.00 | 33 | 1007.8 |
| 20260505215147 | 56 | 276 | 4.0 | 4.0 | 0.00 | 0.00 | 0.00 | 33 | 1007.8 |
| 20260505214645 | 56 | 0 | 0.0 | 5.0 | 0.00 | 0.00 | 0.00 | 34 | 1007.6 |
| 20260505214142 | 56 | 313 | 1.0 | 2.0 | 0.00 | 0.00 | 0.00 | 34 | 1007.6 |
| 20260505213640 | 55 | 295 | 2.0 | 6.0 | 0.00 | 0.00 | 0.00 | 33 | 1007.5 |
| 20260505213136 | 55 | 299 | 2.0 | 3.0 | 0.00 | 0.00 | 0.00 | 32 | 1007.5 |
| 20260505212632 | 55 | 316 | 3.0 | 5.0 | 0.00 | 0.00 | 0.00 | 32 | 1007.7 |
| 20260505212130 | 56 | 5 | 2.0 | 6.0 | 0.00 | 0.00 | 0.00 | 30 | 1007.7 |
| 20260505211626 | 57 | 295 | 3.0 | 4.0 | 0.00 | 0.00 | 0.00 | 31 | 1007.5 |
| 20260505211124 | 57 | 47 | 0.0 | 2.0 | 0.00 | 0.00 | 0.00 | 33 | 1007.6 |
| 20260505210621 | 56 | 174 | 0.0 | 4.0 | 0.00 | 0.00 | 0.00 | 33 | 1007.5 |
| 20260505210117 | 56 | 326 | 3.0 | 5.0 | 0.00 | 0.00 | 0.00 | 30 | 1007.7 |
| 20260505205615 | 56 | 345 | 2.0 | 5.0 | 0.00 | 0.00 | 0.00 | 32 | 1007.4 |
| 20260505205113 | 56 | 18 | 3.0 | 5.0 | 0.00 | 0.00 | 0.00 | 30 | 1007.4 |
| 20260505204609 | 56 | 250 | 4.0 | 6.0 | 0.00 | 0.00 | 0.00 | 31 | 1007.7 |
| 20260505204107 | 56 | 290 | 2.0 | 4.0 | 0.00 | 0.00 | 0.00 | 32 | 1007.7 |
| 20260505203604 | 56 | 245 | 3.0 | 5.0 | 0.00 | 0.00 | 0.00 | 31 | 1007.8 |
| 20260505203101 | 56 | 145 | 2.0 | 4.0 | 0.00 | 0.00 | 0.00 | 33 | 1007.9 |
| 20260505202556 | 56 | 228 | 1.0 | 4.0 | 0.00 | 0.00 | 0.00 | 32 | 1008.1 |
| 20260505202053 | 57 | 146 | 0.0 | 5.0 | 0.00 | 0.00 | 0.00 | 31 | 1007.8 |
| 20260505201549 | 57 | 180 | 2.0 | 2.0 | 0.00 | 0.00 | 0.00 | 33 | 1007.8 |
| 20260505201047 | 56 | 324 | 2.0 | 4.0 | 0.00 | 0.00 | 0.00 | 35 | 1007.9 |
| 20260505200545 | 56 | 4 | 3.0 | 5.0 | 0.00 | 0.00 | 0.00 | 33 | 1007.6 |
| 20260505200042 | 56 | 333 | 2.0 | 4.0 | 0.00 | 0.00 | 0.00 | 32 | 1008.1 |
| 20260505195538 | 57 | 260 | 5.0 | 6.0 | 0.00 | 0.00 | 0.00 | 30 | 1007.9 |
| 20260505195035 | 56 | 307 | 2.0 | 3.0 | 0.00 | 0.00 | 0.00 | 33 | 1007.8 |
| 20260505194532 | 56 | 264 | 0.0 | 5.0 | 0.00 | 0.00 | 0.00 | 30 | 1007.8 |
| 20260505194027 | 56 | 33 | 1.0 | 3.0 | 0.00 | 0.00 | 0.00 | 29 | 1008.2 |
| 20260505193525 | 56 | 248 | 2.0 | 4.0 | 0.00 | 0.00 | 0.00 | 29 | 1007.9 |
| 20260505193022 | 56 | 284 | 0.0 | 5.0 | 0.00 | 0.00 | 0.00 | 28 | 1008.2 |
| 20260505192521 | 56 | 269 | 2.0 | 5.0 | 0.00 | 0.00 | 0.00 | 28 | 1007.8 |
| 20260505192018 | 57 | 330 | 2.0 | 6.0 | 0.00 | 0.00 | 0.00 | 29 | 1008.2 |
| 20260505191516 | 57 | 263 | 2.0 | 4.0 | 0.00 | 0.00 | 0.00 | 31 | 1008.4 |
| 20260505191014 | 57 | 246 | 0.0 | 6.0 | 0.00 | 0.00 | 0.00 | 32 | 1008.4 |
| 20260505190508 | 57 | 334 | 3.0 | 4.0 | 0.00 | 0.00 | 0.00 | 29 | 1008.3 |
| 20260505190004 | 57 | 274 | 3.0 | 7.0 | 0.00 | 0.00 | 0.00 | 30 | 1008.3 |
| 20260505185501 | 56 | 135 | 0.0 | 3.0 | 0.00 | 0.00 | 0.00 | 33 | 1008.1 |
| 20260505184957 | 56 | 13 | 2.0 | 5.0 | 0.00 | 0.00 | 0.00 | 30 | 1007.9 |
| 20260505184455 | 57 | 6 | 2.0 | 5.0 | 0.00 | 0.00 | 0.00 | 32 | 1008.3 |
| 20260505183950 | 56 | 329 | 0.0 | 6.0 | 0.00 | 0.00 | 0.00 | 33 | 1007.8 |
| 20260505183448 | 57 | 30 | 2.0 | 3.0 | 0.00 | 0.00 | 0.00 | 31 | 1007.9 |
| 20260505182944 | 56 | 348 | 2.0 | 6.0 | 0.00 | 0.00 | 0.00 | 32 | 1008.3 |
| 20260505182442 | 56 | 276 | 2.0 | 10.0 | 0.00 | 0.00 | 0.00 | 32 | 1008.1 |
| 20260505181938 | 56 | 346 | 2.0 | 4.0 | 0.00 | 0.00 | 0.00 | 30 | 1008.1 |
| 20260505181435 | 56 | 280 | 4.0 | 7.0 | 0.00 | 0.00 | 0.00 | 30 | 1007.9 |
| 20260505180932 | 57 | 338 | 3.0 | 6.0 | 0.00 | 0.00 | 0.00 | 30 | 1007.7 |
| 20260505180428 | 58 | 276 | 5.0 | 8.0 | 0.00 | 0.00 | 0.00 | 29 | 1007.9 |
| 20260505175925 | 58 | 260 | 4.0 | 4.0 | 0.00 | 0.00 | 0.00 | 31 | 1007.6 |
| 20260505175421 | 56 | 317 | 1.0 | 7.0 | 0.00 | 0.00 | 0.00 | 32 | 1007.8 |
| 20260505174918 | 56 | 306 | 3.0 | 5.0 | 0.00 | 0.00 | 0.00 | 32 | 1007.7 |
| 20260505174415 | 57 | 358 | 2.0 | 6.0 | 0.00 | 0.00 | 0.00 | 31 | 1007.8 |
| 20260505173911 | 57 | 218 | 0.0 | 4.0 | 0.00 | 0.00 | 0.00 | 33 | 1007.9 |
| 20260505173408 | 56 | 263 | 1.0 | 8.0 | 0.00 | 0.00 | 0.00 | 33 | 1007.4 |
| 20260505172905 | 56 | 272 | 4.0 | 5.0 | 0.00 | 0.00 | 0.00 | 34 | 1007.7 |
| 20260505172403 | 56 | 303 | 2.0 | 5.0 | 0.00 | 0.00 | 0.00 | 34 | 1007.7 |
| 20260505171902 | 56 | 203 | 2.0 | 4.0 | 0.00 | 0.00 | 0.00 | 34 | 1007.8 |
| 20260505171359 | 57 | 262 | 4.0 | 5.0 | 0.00 | 0.00 | 0.00 | 34 | 1007.8 |
| 20260505170856 | 55 | 148 | 1.0 | 4.0 | 0.00 | 0.00 | 0.00 | 37 | 1007.4 |
| 20260505170353 | 55 | 234 | 1.0 | 2.0 | 0.00 | 0.00 | 0.00 | 37 | 1007.6 |
| 20260505165848 | 55 | 301 | 2.0 | 5.0 | 0.00 | 0.00 | 0.00 | 35 | 1007.8 |
| 20260505165344 | 54 | 290 | 0.0 | 4.0 | 0.00 | 0.00 | 0.00 | 36 | 1007.7 |
| 20260505164840 | 54 | 259 | 0.0 | 4.0 | 0.00 | 0.00 | 0.00 | 34 | 1007.9 |
| 20260505164336 | 55 | 260 | 2.0 | 6.0 | 0.00 | 0.00 | 0.00 | 33 | 1007.9 |
| 20260505163835 | 55 | 274 | 4.0 | 6.0 | 0.00 | 0.00 | 0.00 | 35 | 1007.9 |
| 20260505163334 | 55 | 112 | 1.0 | 2.0 | 0.00 | 0.00 | 0.00 | 37 | 1007.7 |
| 20260505162832 | 54 | 265 | 0.0 | 8.0 | 0.00 | 0.00 | 0.00 | 37 | 1007.7 |
| 20260505162328 | 53 | 326 | 0.0 | 5.0 | 0.00 | 0.00 | 0.00 | 39 | 1007.7 |
| 20260505161825 | 54 | 262 | 0.0 | 3.0 | 0.00 | 0.00 | 0.00 | 36 | 1007.5 |
| 20260505161322 | 53 | 300 | 2.0 | 4.0 | 0.00 | 0.00 | 0.00 | 38 | 1007.7 |
| 20260505160819 | 53 | 335 | 4.0 | 5.0 | 0.00 | 0.00 | 0.00 | 36 | 1007.6 |
| 20260505160317 | 52 | 268 | 1.0 | 2.0 | 0.00 | 0.00 | 0.00 | 36 | 1007.8 |
| 20260505153256 | 52 | 2 | 5.0 | 8.0 | 0.00 | 0.00 | 0.00 | 39 | 1007.5 |
| 20260505152753 | 52 | 1 | 1.0 | 3.0 | 0.00 | 0.00 | 0.00 | 41 | 1007.4 |
| 20260505152249 | 52 | 166 | 0.0 | 2.0 | 0.00 | 0.00 | 0.00 | 44 | 1007.3 |
| 20260505151743 | 52 | 333 | 3.0 | 4.0 | 0.00 | 0.00 | 0.00 | 41 | 1007.4 |
| 20260505151241 | 52 | 265 | 3.0 | 4.0 | 0.00 | 0.00 | 0.00 | 42 | 1007.5 |
| 20260505150738 | 51 | 22 | 2.0 | 2.0 | 0.00 | 0.00 | 0.00 | 45 | 1007.8 |
| 20260505150236 | 51 | 321 | 2.0 | 4.0 | 0.00 | 0.00 | 0.00 | 43 | 1007.5 |
| 20260505140205 | 50 | 269 | 1.0 | 2.0 | 0.00 | 0.00 | 0.00 | 45 | 1007.8 |
| 20260505130129 | 49 | 19 | 0.0 | 3.0 | 0.00 | 0.00 | 0.00 | 47 | 1007.9 |
| 20260505124619 | 49 | 55 | 0.0 | 1.0 | 0.00 | 0.00 | 0.00 | 49 | 1007.7 |
| 20260505124115 | 49 | 32 | 2.0 | 2.0 | 0.00 | 0.00 | 0.00 | 49 | 1007.7 |
| 20260505123611 | 49 | 67 | 0.0 | 2.0 | 0.00 | 0.00 | 0.00 | 52 | 1007.4 |
| 20260505123108 | 49 | 66 | 2.0 | 3.0 | 0.00 | 0.00 | 0.00 | 50 | 1007.5 |
| 20260505122605 | 48 | 45 | 2.0 | 3.0 | 0.00 | 0.00 | 0.00 | 50 | 1007.4 |
| 20260505122102 | 48 | 309 | 1.0 | 2.0 | 0.00 | 0.00 | 0.00 | 51 | 1007.7 |
| 20260505121558 | 48 | 33 | 2.0 | 3.0 | 0.00 | 0.00 | 0.00 | 52 | 1007.7 |
| 20260505121055 | 48 | 65 | 0.0 | 2.0 | 0.00 | 0.00 | 0.00 | 53 | 1007.3 |
| 20260505120551 | 48 | 54 | 2.0 | 3.0 | 0.00 | 0.00 | 0.00 | 53 | 1007.1 |
| 20260505120047 | 48 | 55 | 0.0 | 3.0 | 0.00 | 0.00 | 0.00 | 52 | 1007.5 |
| 20260505115542 | 48 | 13 | 0.0 | 2.0 | 0.00 | 0.00 | 0.00 | 51 | 1007.7 |
| 20260505115039 | 48 | 30 | 2.0 | 2.0 | 0.00 | 0.00 | 0.00 | 51 | 1007.5 |
| 20260505114536 | 48 | 34 | 1.0 | 2.0 | 0.00 | 0.00 | 0.00 | 51 | 1007.2 |
| 20260505114032 | 48 | 54 | 2.0 | 2.0 | 0.00 | 0.00 | 0.00 | 51 | 1007.2 |
| 20260505113529 | 48 | 44 | 0.0 | 1.0 | 0.00 | 0.00 | 0.00 | 50 | 1006.8 |
| 20260505113026 | 48 | 11 | 2.0 | 4.0 | 0.00 | 0.00 | 0.00 | 49 | 1006.3 |
| 20260505112523 | 48 | 45 | 2.0 | 4.0 | 0.00 | 0.00 | 0.00 | 49 | 1006.2 |
| 20260505112021 | 48 | 318 | 0.0 | 5.0 | 0.00 | 0.00 | 0.00 | 49 | 1006.3 |
| 20260505111519 | 48 | 6 | 1.0 | 3.0 | 0.00 | 0.00 | 0.00 | 48 | 1005.6 |
| 20260505111016 | 49 | 16 | 3.0 | 5.0 | 0.00 | 0.00 | 0.00 | 47 | 1005.6 |
| 20260505110513 | 49 | 11 | 3.0 | 11.0 | 0.00 | 0.00 | 0.00 | 48 | 1005.5 |
| 20260505101945 | 50 | 14 | 3.0 | 6.0 | 0.00 | 0.00 | 0.00 | 50 | 1005.5 |
| 20260505101443 | 50 | 310 | 1.0 | 4.0 | 0.00 | 0.00 | 0.00 | 51 | 1005.4 |
| 20260505100940 | 50 | 343 | 2.0 | 4.0 | 0.00 | 0.00 | 0.00 | 50 | 1004.9 |
| 20260505100437 | 50 | 30 | 2.0 | 3.0 | 0.00 | 0.00 | 0.00 | 49 | 1004.9 |
| 20260505095933 | 50 | 352 | 2.0 | 6.0 | 0.00 | 0.00 | 0.00 | 50 | 1004.9 |
| 20260505095430 | 50 | 17 | 2.0 | 6.0 | 0.00 | 0.00 | 0.00 | 49 | 1005.0 |
| 20260505094926 | 50 | 17 | 2.0 | 5.0 | 0.00 | 0.00 | 0.00 | 49 | 1005.1 |
| 20260505094423 | 50 | 32 | 9.0 | 13.0 | 0.00 | 0.00 | 0.00 | 49 | 1005.2 |
| 20260505093919 | 51 | 17 | 4.0 | 4.0 | 0.00 | 0.00 | 0.00 | 50 | 1005.3 |
| 20260505093416 | 51 | 7 | 2.0 | 8.0 | 0.00 | 0.00 | 0.00 | 50 | 1005.0 |
| 20260505092913 | 51 | 0 | 3.0 | 7.0 | 0.00 | 0.00 | 0.00 | 49 | 1005.3 |
| 20260505092411 | 51 | 349 | 1.0 | 9.0 | 0.00 | 0.00 | 0.00 | 49 | 1004.8 |
| 20260505091908 | 51 | 30 | 5.0 | 6.0 | 0.00 | 0.00 | 0.00 | 48 | 1004.9 |
| 20260505091406 | 52 | 8 | 2.0 | 4.0 | 0.00 | 0.00 | 0.00 | 48 | 1005.0 |
| 20260505090904 | 52 | 40 | 6.0 | 8.0 | 0.00 | 0.00 | 0.00 | 46 | 1004.8 |
| 20260505090402 | 52 | 13 | 3.0 | 9.0 | 0.00 | 0.00 | 0.00 | 48 | 1004.5 |
| 20260505085859 | 52 | 30 | 2.0 | 9.0 | 0.00 | 0.00 | 0.00 | 47 | 1004.5 |
| 20260505085356 | 52 | 13 | 3.0 | 5.0 | 0.00 | 0.00 | 0.00 | 47 | 1004.6 |
| 20260505084854 | 52 | 27 | 1.0 | 6.0 | 0.00 | 0.00 | 0.00 | 47 | 1004.0 |
| 20260505084352 | 52 | 22 | 2.0 | 4.0 | 0.00 | 0.00 | 0.00 | 46 | 1004.2 |
| 20260505083850 | 52 | 358 | 2.0 | 4.0 | 0.00 | 0.00 | 0.00 | 46 | 1004.2 |
| 20260505083347 | 53 | 41 | 2.0 | 5.0 | 0.00 | 0.00 | 0.00 | 46 | 1003.6 |
| 20260505082843 | 53 | 21 | 3.0 | 8.0 | 0.00 | 0.00 | 0.00 | 45 | 1003.9 |
| 20260505082339 | 53 | 1 | 4.0 | 6.0 | 0.00 | 0.00 | 0.00 | 45 | 1003.4 |
| 20260505081836 | 53 | 18 | 2.0 | 6.0 | 0.00 | 0.00 | 0.00 | 44 | 1003.6 |
| 20260505081333 | 53 | 10 | 2.0 | 5.0 | 0.00 | 0.00 | 0.00 | 46 | 1003.4 |
| 20260505080830 | 54 | 16 | 6.0 | 6.0 | 0.00 | 0.00 | 0.00 | 44 | 1002.7 |
| 20260505080325 | 54 | 357 | 6.0 | 11.0 | 0.00 | 0.00 | 0.00 | 44 | 1003.3 |
| 20260505075821 | 54 | 10 | 7.0 | 16.0 | 0.00 | 0.00 | 0.00 | 44 | 1002.5 |
| 20260505075319 | 55 | 0 | 6.0 | 12.0 | 0.00 | 0.00 | 0.00 | 44 | 1002.7 |
| 20260505074816 | 56 | 32 | 7.0 | 9.0 | 0.00 | 0.00 | 0.00 | 44 | 1002.5 |